EDT,Max TemperatureF,Mean TemperatureF,Min TemperatureF,Max Dew PointF,MeanDew PointF,Min DewpointF,Max Humidity, Mean Humidity, Min Humidity, Max Sea Level PressureIn, Mean Sea Level PressureIn, Min Sea Level PressureIn, Max VisibilityMiles, Mean VisibilityMiles, Min VisibilityMiles, Max Wind SpeedMPH, Mean Wind SpeedMPH, Max Gust SpeedMPH,PrecipitationIn, CloudCover, Events, WindDirDegrees
2011-9-1,86,70,53,64,59,54,100,73,43,30.22,30.17,30.04,10,9,4,0,0,,0.00,0,,-1
2011-9-2,84,72,60,72,67,61,100,89,62,30.12,30.07,30.00,10,8,1,0,0,,0.09,2,,-1
2011-9-3,84,74,64,68,66,64,100,77,55,30.07,30.03,29.97,10,10,7,0,0,,0.00,3,,-1
2011-9-4,87,76,66,70,67,63,100,77,46,30.00,29.96,29.87,10,9,5,10,1,9,0.00,2,,205
2011-9-5,82,74,66,70,67,63,100,82,65,29.90,29.85,29.76,10,10,7,12,1,21,0.00,3,,197
2011-9-6,73,70,66,73,71,66,100,98,88,29.88,29.81,29.78,10,9,0,13,2,28,0.91,7,,92
2011-9-7,82,74,66,70,63,52,100,78,35,29.96,29.92,29.88,10,7,0,12,0,22,0.01,5,,197
2011-9-8,82,70,57,66,60,55,100,74,39,29.94,29.91,29.86,10,7,0,0,0,,0.00,3,,-1
2011-9-9,84,72,60,64,61,55,100,74,37,29.92,29.89,29.86,10,7,1,0,0,,0.00,3,,-1
2011-9-10,86,73,60,64,60,52,100,72,33,30.01,29.97,29.93,10,8,2,0,0,,0.00,1,,-1
2011-9-11,87,73,59,64,59,52,100,68,29,30.11,30.06,30.03,10,8,1,0,0,,0.00,1,,-1
2011-9-12,84,72,60,66,60,54,100,67,35,30.11,30.07,30.01,10,8,0,0,0,,0.00,1,,-1
2011-9-13,87,76,64,66,60,52,100,62,29,30.07,30.02,29.98,10,9,2,0,0,,0.00,1,,-1
2011-9-14,89,74,60,64,59,46,100,67,22,30.03,30.00,29.94,10,7,1,0,0,,0.00,0,,-1
2011-9-15,89,76,64,68,63,57,100,71,33,29.98,29.92,29.85,10,8,1,14,1,18,0.00,0,,222
2011-9-16,60,58,55,46,41,36,67,52,44,30.36,30.30,30.20,10,10,10,15,6,24,0.00,8,,40
2011-9-17,59,57,55,57,54,52,100,92,88,30.35,30.31,30.28,10,9,2,9,0,,0.02,8,,30
2011-9-18,69,63,57,55,53,52,94,78,56,30.36,30.33,30.30,10,10,10,12,1,17,0.00,8,,35
2011-9-19,73,66,59,63,58,57,94,77,57,30.30,30.24,30.15,10,10,5,0,0,,0.00,7,,-1
2011-9-20,78,69,60,64,62,59,100,80,57,30.18,30.15,30.11,10,10,2,0,0,,0.00,4,,-1
2011-9-21,78,71,64,72,67,64,100,89,69,30.18,30.15,30.10,10,8,3,0,0,,0.00,3,,-1
2011-9-22,77,73,69,72,70,68,100,91,74,30.18,30.14,30.10,10,7,1,0,0,,0.01,6,,-1
2011-9-23,75,72,69,72,71,68,100,95,83,30.13,30.03,29.94,10,8,0,18,1,24,0.42,,,243
2011-9-24,77,70,62,72,66,63,100,93,73,30.06,30.02,29.98,10,6,0,0,0,,0.04,7,,-1
2011-9-25,78,74,69,72,70,66,100,87,69,30.10,30.06,30.03,10,8,0,0,0,,0.00,7,,-1
2011-9-26,82,74,66,73,68,64,100,82,58,30.05,29.99,29.94,10,7,0,7,0,,0.00,7,,140
2011-9-27,87,79,71,72,70,63,100,79,46,29.96,29.92,29.86,10,9,4,14,1,21,0.00,5,,225
2011-9-28,82,74,66,73,66,61,100,80,48,29.93,29.88,29.82,10,8,0,20,2,33,0.16,5,,223
2011-9-29,82,70,59,66,59,52,100,73,35,29.86,29.82,29.79,10,7,0,8,1,,0.00,2,,286
2011-9-30,80,66,53,61,56,54,100,76,39,29.83,29.77,29.69,10,8,2,0,0,,0.00,2,,-1